TDRS 8 1 26388U 00034A 21018.63643862 -.00000235 00000-0 00000-0 0 9995 2 26388 9.5633 46.0735 0019297 314.7038 75.7029 1.00278815 75378 ATLAS 2A CENTAUR R/B 1 26389U 00034B 21018.38420921 .00003634 00000-0 38467-3 0 9993 2 26389 26.8869 82.8379 5397503 65.8352 340.4835 5.00686988311188